Retour au catalogue

SATCOM 3 DEB

LostHEO
NORAD 32989·DEBRIS·🇺🇸 United States

Lancé Dec 7, 1979 depuis Cape Canaveral Space Force Station

Loading…

Prochains Passages (prochaines 24 heures)

TLE

PériméSource: Space-Track

Époque: May 21, 2026, 00:27 UTC

1 32989U 79101Q   26141.01919740 -.00000154  00000-0  00000-0 0  9995
2 32989   9.9308  48.0890 4782092 171.5895   0.3319  1.85700959124400

Suivez SATCOM 3 DEB en temps réel avec AllMySat

Download on the App Store